• In Hungary
  • List of Countries
  • For 7 days
  • Water Temperature
  • Satellite Maps
  • Weather Map
  • News
  • Weather Widgets
  • user-avatar
    Login

    Hourly Weather Voshodyaschiy

    Today, 17 July, Tuesday

    Time Temperature Precipitation Wind Pressure Humidity
    00:00 +27°C° 0.1 mm 5 mps 749 mmHg 59%
    01:00 +26°C° 0.1 mm 6 mps 749 mmHg 61%
    02:00 +26°C° 0.3 mm 6 mps 749 mmHg 63%
    03:00 +24°C° 0.3 mm 6 mps 749 mmHg 65%
    04:00 +25°C° 0 mm 5 mps 748 mmHg 70%
    05:00 +24°C° 0.5 mm 6 mps 748 mmHg 70%
    06:00 +24°C° 0.5 mm 6 mps 748 mmHg 69%
    07:00 +24°C° 0.5 mm 7 mps 748 mmHg 69%
    08:00 +26°C° 0 mm 7 mps 748 mmHg 64%
    09:00 +28°C° 0 mm 7 mps 748 mmHg 59%
    10:00 +29°C° 0 mm 7 mps 748 mmHg 54%
    11:00 +29°C° 0.2 mm 6 mps 748 mmHg 56%
    12:00 +29°C° 0.2 mm 6 mps 747 mmHg 58%
    13:00 +29°C° 0.2 mm 5 mps 747 mmHg 60%
    14:00 +29°C° 0.3 mm 5 mps 747 mmHg 59%
    15:00 +29°C° 0.3 mm 6 mps 747 mmHg 58%
    16:00 +29°C° 0.3 mm 6 mps 747 mmHg 57%
    17:00 +29°C° 0.1 mm 5 mps 747 mmHg 58%
    18:00 +28°C° 0.1 mm 5 mps 747 mmHg 60%
    19:00 +28°C° 0.1 mm 5 mps 747 mmHg 61%
    20:00 +27°C° 0.3 mm 4 mps 747 mmHg 63%
    21:00 +26°C° 0.3 mm 4 mps 746 mmHg 66%
    22:00 +25°C° 0.3 mm 3 mps 746 mmHg 69%
    23:00 +25°C° 0 mm 3 mps 746 mmHg 70%

    Tomorrow, 18 July, Wednesday

    Time Temperature Precipitation Wind Pressure Humidity
    00:00 +24°C° 0 mm 2 mps 746 mmHg 72%
    01:00 +24°C° 0 mm 2 mps 746 mmHg 73%
    02:00 +24°C° 0 mm 1 mps 746 mmHg 74%
    03:00 +23°C° 0 mm 1 mps 746 mmHg 74%
    04:00 +23°C° 0 mm 1 mps 746 mmHg 75%
    05:00 +24°C° 0 mm 1 mps 746 mmHg 71%
    06:00 +25°C° 0 mm 1 mps 746 mmHg 68%
    07:00 +27°C° 0 mm 1 mps 747 mmHg 64%
    08:00 +28°C° 0 mm 1 mps 747 mmHg 58%
    09:00 +29°C° 0 mm 1 mps 747 mmHg 52%
    10:00 +31°C° 0 mm 2 mps 747 mmHg 47%
    11:00 +31°C° 0 mm 2 mps 747 mmHg 45%
    12:00 +33°C° 0 mm 3 mps 747 mmHg 43%
    13:00 +33°C° 0 mm 3 mps 747 mmHg 42%
    14:00 +33°C° 0 mm 3 mps 747 mmHg 41%
    15:00 +33°C° 0 mm 4 mps 747 mmHg 40%
    16:00 +34°C° 0 mm 4 mps 747 mmHg 39%
    17:00 +33°C° 0 mm 3 mps 747 mmHg 42%
    18:00 +31°C° 0 mm 3 mps 748 mmHg 45%
    19:00 +31°C° 0 mm 2 mps 748 mmHg 48%
    20:00 +29°C° 0 mm 2 mps 748 mmHg 51%
    21:00 +28°C° 0 mm 1 mps 748 mmHg 53%
    22:00 +26°C° 0 mm 1 mps 748 mmHg 56%
    23:00 +26°C° 0 mm 1 mps 748 mmHg 57%

    Day after tomorrow, 19 July, Thursday

    Time Temperature Precipitation Wind Pressure Humidity
    00:00 +25°C° 0 mm 1 mps 748 mmHg 58%
    01:00 +24°C° 0 mm 1 mps 749 mmHg 60%
    02:00 +24°C° 0 mm 1 mps 749 mmHg 60%
    03:00 +24°C° 0 mm 1 mps 749 mmHg 60%
    04:00 +24°C° 0 mm 1 mps 749 mmHg 61%
    05:00 +25°C° 0 mm 1 mps 749 mmHg 59%
    06:00 +26°C° 0 mm 1 mps 749 mmHg 57%
    07:00 +27°C° 0 mm 1 mps 750 mmHg 55%
    08:00 +29°C° 0 mm 1 mps 750 mmHg 50%
    09:00 +30°C° 0 mm 2 mps 750 mmHg 44%
    10:00 +32°C° 0 mm 2 mps 750 mmHg 39%
    11:00 +32°C° 0 mm 2 mps 750 mmHg 38%
    12:00 +34°C° 0 mm 2 mps 750 mmHg 37%
    13:00 +34°C° 0 mm 2 mps 750 mmHg 35%
    14:00 +34°C° 0 mm 2 mps 750 mmHg 35%
    15:00 +34°C° 0 mm 2 mps 750 mmHg 35%
    16:00 +34°C° 0 mm 1 mps 750 mmHg 34%
    17:00 +33°C° 0 mm 1 mps 750 mmHg 37%
    18:00 +33°C° 0 mm 1 mps 750 mmHg 40%
    19:00 +32°C° 0 mm 1 mps 750 mmHg 42%
    20:00 +31°C° 0 mm 1 mps 750 mmHg 44%
    21:00 +29°C° 0 mm 1 mps 751 mmHg 45%
    22:00 +28°C° 0 mm 2 mps 751 mmHg 47%
    23:00 +27°C° 0 mm 2 mps 751 mmHg 49%

    20 July, Friday

    Time Temperature Precipitation Wind Pressure Humidity
    00:00 +26°C° 0 mm 2 mps 751 mmHg 52%
    01:00 +25°C° 0 mm 2 mps 751 mmHg 54%
    02:00 +25°C° 0 mm 2 mps 751 mmHg 56%
    03:00 +25°C° 0 mm 2 mps 751 mmHg 58%
    04:00 +24°C° 0 mm 2 mps 751 mmHg 60%
    05:00 +25°C° 0 mm 2 mps 751 mmHg 60%
    06:00 +26°C° 0 mm 2 mps 751 mmHg 60%
    07:00 +27°C° 0 mm 2 mps 751 mmHg 60%
    08:00 +29°C° 0 mm 2 mps 751 mmHg 55%
    09:00 +31°C° 0 mm 2 mps 751 mmHg 50%
    10:00 +32°C° 0 mm 2 mps 751 mmHg 45%
    11:00 +34°C° 0 mm 2 mps 750 mmHg 42%
    12:00 +35°C° 0 mm 2 mps 750 mmHg 39%
    13:00 +35°C° 0 mm 2 mps 750 mmHg 36%
    14:00 +35°C° 0 mm 2 mps 750 mmHg 36%
    15:00 +35°C° 0 mm 3 mps 750 mmHg 36%
    16:00 +36°C° 0 mm 3 mps 750 mmHg 36%
    17:00 +35°C° 0 mm 3 mps 750 mmHg 40%
    18:00 +34°C° 0 mm 3 mps 750 mmHg 43%
    19:00 +33°C° 0 mm 3 mps 750 mmHg 47%
    20:00 +32°C° 0 mm 4 mps 750 mmHg 51%
    21:00 +29°C° 0 mm 4 mps 750 mmHg 55%
    22:00 +27°C° 0 mm 4 mps 750 mmHg 59%
    23:00 +27°C° 0 mm 4 mps 750 mmHg 62%

    21 July, Saturday

    Time Temperature Precipitation Wind Pressure Humidity
    00:00 +26°C° 0 mm 4 mps 750 mmHg 65%
    01:00 +25°C° 0 mm 4 mps 750 mmHg 68%
    02:00 +24°C° 0 mm 3 mps 750 mmHg 71%
    03:00 +24°C° 0 mm 3 mps 750 mmHg 73%
    04:00 +22°C° 0 mm 3 mps 750 mmHg 76%
    05:00 +23°C° 0 mm 4 mps 750 mmHg 74%
    06:00 +23°C° 0 mm 4 mps 750 mmHg 73%
    07:00 +25°C° 0 mm 5 mps 750 mmHg 72%
    08:00 +26°C° 0 mm 5 mps 750 mmHg 67%
    09:00 +28°C° 0 mm 6 mps 750 mmHg 62%
    10:00 +29°C° 0 mm 6 mps 750 mmHg 58%
    11:00 +30°C° 0 mm 6 mps 750 mmHg 54%
    12:00 +32°C° 0 mm 7 mps 750 mmHg 51%
    13:00 +34°C° 0 mm 7 mps 750 mmHg 47%
    14:00 +34°C° 0 mm 7 mps 750 mmHg 47%
    15:00 +34°C° 0 mm 7 mps 750 mmHg 46%
    16:00 +34°C° 0 mm 8 mps 750 mmHg 45%
    17:00 +33°C° 0 mm 7 mps 750 mmHg 48%
    18:00 +32°C° 0 mm 7 mps 750 mmHg 51%
    19:00 +30°C° 0 mm 7 mps 750 mmHg 54%
    20:00 +29°C° 0.3 mm 7 mps 750 mmHg 58%
    21:00 +27°C° 0.3 mm 7 mps 750 mmHg 63%
    22:00 +26°C° 0.3 mm 7 mps 751 mmHg 68%
    23:00 +24°C° 0.1 mm 7 mps 751 mmHg 68%

    22 July, Sunday

    Time Temperature Precipitation Wind Pressure Humidity
    00:00 +24°C° 0.1 mm 7 mps 751 mmHg 68%
    01:00 +23°C° 0.1 mm 7 mps 751 mmHg 68%
    02:00 +23°C° 0.1 mm 7 mps 751 mmHg 69%
    03:00 +23°C° 0.1 mm 7 mps 751 mmHg 70%
    04:00 +22°C° 0.1 mm 7 mps 751 mmHg 71%
    05:00 +22°C° 0.4 mm 8 mps 751 mmHg 71%
    06:00 +22°C° 0.4 mm 8 mps 752 mmHg 71%
    07:00 +23°C° 0.4 mm 8 mps 752 mmHg 71%
    08:00 +24°C° 0.2 mm 8 mps 752 mmHg 67%
    09:00 +26°C° 0.2 mm 8 mps 752 mmHg 63%
    10:00 +27°C° 0.2 mm 9 mps 752 mmHg 59%
    11:00 +28°C° 0 mm 9 mps 752 mmHg 55%
    12:00 +29°C° 0 mm 9 mps 752 mmHg 52%
    13:00 +32°C° 0 mm 9 mps 752 mmHg 48%
    14:00 +32°C° 0 mm 9 mps 752 mmHg 47%
    15:00 +32°C° 0 mm 9 mps 753 mmHg 46%
    16:00 +32°C° 0 mm 9 mps 753 mmHg 44%
    17:00 +31°C° 0 mm 8 mps 753 mmHg 46%
    18:00 +29°C° 0 mm 8 mps 753 mmHg 47%
    19:00 +28°C° 0 mm 7 mps 753 mmHg 48%
    20:00 +27°C° 0 mm 7 mps 754 mmHg 47%
    21:00 +26°C° 0 mm 8 mps 754 mmHg 47%
    22:00 +24°C° 0 mm 8 mps 754 mmHg 46%
    23:00 +23°C° 0 mm 8 mps 754 mmHg 45%
    Show more